Change the Weather History Date:

Wednesday, June 11, 2014

  Actual Average Record
Temperature  
Mean Temperature 70 °F -  
Max Temperature 77 °F 78 °F 91 °F (2000)
Min Temperature 65 °F 61 °F 58 °F (2013)
Cooling Degree Days 6    
Growing Degree Days 20 (Base 50)    
Moisture  
Dew Point 67 °F    
Average Humidity 90    
Maximum Humidity 100    
Minimum Humidity 73    
Precipitation  
Precipitation 0.01 in - - ()
Sea Level Pressure  
Sea Level Pressure 29.77 in    
Wind  
Wind Speed 9 mph (South)    
Max Wind Speed 13 mph    
Max Gust Speed 24 mph    
Visibility 10 miles    
Events Rain    
Averages and records for this station are not official NWS values.
T = Trace of Precipitation, MM = Missing Value Source: NWS Daily Summary

Daily Weather History Graph

Daily Weather History Graph

Search for Another Location

Airport or City:

Trip Planner

Search our weather history database for the weather conditions in past years. The results will help you decide how hot, cold, wet, or windy it might be!

Date:

Astronomy

Jun. 11, 2014 Rise Set
Actual Time 6:21 AM EDT 9:06 PM EDT
Civil Twilight 5:49 AM EDT 9:37 PM EDT
Nautical Twilight 5:10 AM EDT 10:16 PM EDT
Astronomical Twilight 4:26 AM EDT 11:01 PM EDT
Moon 7:37 PM EDT (6/11) 5:08 AM EDT (6/11)
Length of Visible Light 15h 47m
Length of Day
14h 45m
Waxing Gibbous, 97% of the Moon is Illuminated
Jun 11
Waxing Gibbous
Jun 13
Full
Jun 19
Last Quarter
Jun 27
New
Jul 5
First Quarter

Hourly Weather History & Observations

Time (EDT) Temp. Dew Point Humidity Pressure Visibility Wind Dir Wind Speed Gust Speed Precip Events Conditions
12:53 AM 68.0 °F 68.0 °F 100% 29.78 in 10.0 mi SSE 10.4 mph - N/A   Mostly Cloudy
12:58 AM 68.4 °F 67.5 °F 97% 29.77 in 10.0 mi SSE 12.7 mph - N/A   Mostly Cloudy
1:13 AM 68.0 °F 68.0 °F 100% 29.78 in 10.0 mi SSE 12.7 mph 19.6 mph N/A   Mostly Cloudy
1:18 AM 68.0 °F 68.0 °F 100% 29.78 in 10.0 mi SSE 10.4 mph 19.6 mph N/A   Scattered Clouds
1:33 AM 68.0 °F 68.0 °F 100% 29.78 in 10.0 mi South 11.5 mph - N/A   Mostly Cloudy
1:58 AM 68.2 °F 67.6 °F 98% 29.77 in 10.0 mi South 11.5 mph - N/A   Overcast
2:48 AM 68.0 °F 68.0 °F 100% 29.77 in 10.0 mi South 12.7 mph - N/A   Mostly Cloudy
2:58 AM 68.0 °F 66.9 °F 96% 29.76 in 10.0 mi South 11.5 mph - N/A   Mostly Cloudy
3:13 AM 68.0 °F 66.2 °F 94% 29.77 in 10.0 mi South 8.1 mph - N/A   Mostly Cloudy
3:18 AM 68.0 °F 66.2 °F 94% 29.77 in 10.0 mi South 9.2 mph - N/A   Mostly Cloudy
3:58 AM 67.5 °F 66.9 °F 98% 29.77 in 10.0 mi SSE 9.2 mph - N/A   Mostly Cloudy
4:03 AM 68.0 °F 66.2 °F 94% 29.77 in 10.0 mi SSE 9.2 mph - N/A   Mostly Cloudy
4:58 AM 67.6 °F 66.6 °F 96% 29.77 in 10.0 mi SSE 6.9 mph - N/A   Overcast
5:39 AM 68.0 °F 66.2 °F 94% 29.77 in 10.0 mi SSE 9.2 mph - N/A Rain Light Rain
5:58 AM 67.1 °F 66.6 °F 98% 29.77 in 10.0 mi SSE 6.9 mph - 0.00 in Rain Light Rain
6:03 AM 66.2 °F 66.2 °F 100% 29.77 in 10.0 mi SE 6.9 mph - N/A Rain Light Rain
6:08 AM 66.2 °F 66.2 °F 100% 29.77 in 10.0 mi SSE 5.8 mph - N/A Rain Light Rain
6:18 AM 66.2 °F 66.2 °F 100% 29.77 in 10.0 mi SSE 6.9 mph - N/A Rain Light Rain
6:23 AM 66.2 °F 66.2 °F 100% 29.78 in 10.0 mi SSE 5.8 mph - N/A Rain Light Rain
6:42 AM 66.2 °F 66.2 °F 100% 29.77 in 10.0 mi SE 4.6 mph - N/A   Mostly Cloudy
6:58 AM 66.6 °F 66.6 °F 100% 29.77 in 10.0 mi SE 6.9 mph - 0.01 in   Mostly Cloudy
6:59 AM 66.2 °F 66.2 °F 100% 29.77 in 9.0 mi SE 6.9 mph - N/A Rain Light Rain
7:13 AM 66.2 °F 66.2 °F 100% 29.77 in 10.0 mi SE 6.9 mph - N/A   Mostly Cloudy
7:58 AM 66.7 °F 66.7 °F 100% 29.78 in 10.0 mi SE 9.2 mph - 0.00 in   Overcast
8:18 AM 68.0 °F 68.0 °F 100% 29.79 in 10.0 mi SE 8.1 mph - N/A   Overcast
8:32 AM 68.0 °F 66.2 °F 94% 29.79 in 10.0 mi ESE 9.2 mph - N/A Rain Light Rain
8:37 AM 68.0 °F 66.2 °F 94% 29.79 in 10.0 mi SSE 8.1 mph - N/A Rain Light Rain
8:41 AM 68.0 °F 66.2 °F 94% 29.79 in 10.0 mi SE 10.4 mph - N/A   Overcast
8:46 AM 68.0 °F 66.2 °F 94% 29.79 in 10.0 mi SE 10.4 mph - N/A   Overcast
8:58 AM 67.3 °F 66.9 °F 99% 29.79 in 10.0 mi SSE 10.4 mph - 0.00 in   Overcast
9:58 AM 68.0 °F 67.3 °F 98% 29.79 in 10.0 mi South 8.1 mph - N/A   Overcast
10:18 AM 69.8 °F 68.0 °F 94% 29.79 in 10.0 mi SSE 11.5 mph - N/A   Overcast
10:28 AM 69.8 °F 68.0 °F 94% 29.78 in 10.0 mi South 11.5 mph - N/A   Overcast
10:38 AM 69.8 °F 68.0 °F 94% 29.78 in 10.0 mi South 11.5 mph - N/A   Overcast
10:43 AM 69.8 °F 68.0 °F 94% 29.78 in 10.0 mi SSE 10.4 mph - N/A   Overcast
10:58 AM 70.3 °F 67.8 °F 92% 29.78 in 10.0 mi SSE 9.2 mph - N/A   Mostly Cloudy
11:33 AM 73.4 °F 68.0 °F 83% 29.77 in 10.0 mi South 12.7 mph 18.4 mph N/A   Mostly Cloudy
11:43 AM 73.4 °F 66.2 °F 78% 29.77 in 10.0 mi South 11.5 mph - N/A   Scattered Clouds
11:48 AM 73.4 °F 66.2 °F 78% 29.77 in 10.0 mi South 11.5 mph - N/A   Mostly Cloudy
11:58 AM 73.2 °F 66.7 °F 80% 29.78 in 10.0 mi South 11.5 mph - N/A   Scattered Clouds
12:48 PM 73.4 °F 66.2 °F 78% 29.77 in 10.0 mi South 8.1 mph - N/A   Mostly Cloudy
12:58 PM 74.5 °F 66.4 °F 76% 29.76 in 10.0 mi South 10.4 mph - N/A   Overcast
1:13 PM 73.4 °F 66.2 °F 78% 29.77 in 10.0 mi South 10.4 mph - N/A   Mostly Cloudy
1:58 PM 75.2 °F 67.1 °F 76% 29.75 in 10.0 mi SSE 10.4 mph - N/A   Mostly Cloudy
2:03 PM 75.2 °F 66.2 °F 73% 29.76 in 10.0 mi SSE 12.7 mph 18.4 mph N/A   Mostly Cloudy
2:08 PM 75.2 °F 68.0 °F 78% 29.76 in 10.0 mi SSE 10.4 mph 18.4 mph N/A   Mostly Cloudy
2:17 PM 75.2 °F 66.2 °F 73% 29.76 in 10.0 mi South 10.4 mph - N/A Rain Light Rain
2:27 PM 75.2 °F 68.0 °F 78% 29.76 in 10.0 mi South 8.1 mph - N/A   Mostly Cloudy
2:36 PM 75.2 °F 66.2 °F 73% 29.76 in 10.0 mi West 11.5 mph - N/A   Light Drizzle
2:51 PM 71.6 °F 66.2 °F 83% 29.76 in 10.0 mi West 9.2 mph - N/A Rain Light Rain
2:52 PM 71.6 °F 66.2 °F 83% 29.76 in 10.0 mi West 10.4 mph - N/A   Mostly Cloudy
2:58 PM 71.4 °F 67.1 °F 86% 29.75 in 10.0 mi WSW 8.1 mph - 0.00 in   Mostly Cloudy
3:26 PM 71.6 °F 66.2 °F 83% 29.77 in 10.0 mi WSW 10.4 mph 24.2 mph N/A Rain Light Rain
3:35 PM 71.6 °F 66.2 °F 83% 29.77 in 10.0 mi WSW 12.7 mph - N/A   Overcast
3:58 PM 74.8 °F 66.2 °F 74% 29.76 in 10.0 mi SSW 9.2 mph 16.1 mph 0.00 in   Overcast
4:58 PM 75.7 °F 66.6 °F 73% 29.75 in 10.0 mi WSW 10.4 mph 18.4 mph N/A   Mostly Cloudy
5:58 PM 74.3 °F 66.2 °F 76% 29.75 in 10.0 mi SSW 6.9 mph - N/A   Mostly Cloudy
6:58 PM 74.7 °F 66.2 °F 75% 29.74 in 10.0 mi WSW 3.5 mph - N/A   Mostly Cloudy
7:58 PM 74.1 °F 67.1 °F 79% 29.75 in 10.0 mi SSE 2.3 mph - N/A   Scattered Clouds
8:58 PM 71.6 °F 66.7 °F 85% 29.77 in 10.0 mi SW 2.3 mph - N/A   Mostly Cloudy
9:33 PM 68.0 °F 68.0 °F 100% 29.78 in 10.0 mi West 1.2 mph - N/A   Mostly Cloudy
9:58 PM 68.0 °F 66.7 °F 96% 29.79 in 10.0 mi SW 2.3 mph - N/A   Mostly Cloudy
10:58 PM 67.3 °F 66.4 °F 97% 29.81 in 10.0 mi SW 3.5 mph - 0.00 in   Partly Cloudy
11:58 PM 65.3 °F 65.3 °F 100% 29.82 in 9.0 mi SW 2.3 mph - N/A   Partly Cloudy